Flag for Italy Weather past 2 weeks in Venice, Italy

Now
41 °F

Fog.


Feels Like: 39 °F
Forecast: 36 / 45 °F
Wind: 3 mph from North

Location: Venice / Tessera

Current Time: Dec 23, 2014 at 3:23:43 AM

Latest Report: Dec 23, 2014 at 12:20 AM


Visibility: 3 mi

Pressure: 30.39 "Hg

Humidity: 87%

Dew point: 37 °F

Location of VeniceLocation

Historic Weather in Venice — Graph

°F

Venice temperature yesterday

Maximum temperature yesterday: 43 °F (at 12:20 AM)
Minimum temperature yesterday: 41 °F (at 7:50 PM)
Average temperature yesterday: 43 °F

Past Weeks' High & Low Weather Summary

 TemperatureHumidityPressure
High57 °F (Dec 17, 11:50 AM)100% (Dec 16, 6:20 AM)30.48 "Hg (Dec 16, 6:20 AM)
Low32 °F (Dec 12, 4:50 AM)32% (Dec 10, 1:20 PM)29.77 "Hg (Dec 16, 8:20 PM)
Average45 °F80%30.12 "Hg
* Reported Dec 8 12:20 AM — Dec 23 12:20 AM, Venice, Weather by CustomWeather, © 2014

Note: Actual official high and low records may vary slightly from our data, if they occured in-between our weather recording intervals... More about our weather records

Advertising

Venice weather history for previous 24 hours

 ConditionsComfort  
Time TempWeatherWind HumidityBarometerVisibility
12:20 AM
Dec 23
41 °FFog.3 mph87%30.39 "Hg3 mi
11:50 PM
Dec 22
41 °FPartly cloudy.2 mph87%30.39 "Hg4 mi
11:20 PM41 °FPassing clouds.3 mph87%30.39 "Hg4 mi
10:50 PM43 °FPassing clouds.5 mph81%30.39 "Hg6 mi
10:20 PM43 °FPassing clouds.6 mph81%30.39 "Hg6 mi
9:50 PM43 °FPassing clouds.6 mph81%30.39 "Hg6 mi
9:20 PM43 °FPassing clouds.3 mph81%30.39 "Hg6 mi
8:50 PM43 °FPassing clouds.3 mph87%30.39 "Hg6 mi
8:20 PM41 °FPassing clouds.3 mph87%30.39 "Hg6 mi
7:50 PM41 °FPassing clouds.2 mph87%30.39 "Hg6 mi
7:20 PM43 °FPassing clouds.1 mph81%30.39 "Hg6 mi
6:50 PM43 °FPartly cloudy.No wind87%30.39 "Hg6 mi
6:20 PM43 °FPartly cloudy.No wind87%30.39 "Hg4 mi
5:50 PM43 °FPartly cloudy.No wind81%30.36 "Hg4 mi
5:20 PM43 °FPartly cloudy.1 mph81%30.36 "Hg4 mi
4:20 PM43 °FFog.2 mph81%30.36 "Hg2 mi
3:50 PM43 °FFog.No wind87%30.36 "Hg2 mi
3:20 PM43 °FFog.1 mph87%30.36 "Hg2 mi
2:50 PM43 °FFog.1 mph87%30.36 "Hg2 mi
2:20 PM43 °FFog.2 mph87%30.39 "Hg2 mi
1:20 PM43 °FFog.2 mph87%30.39 "Hg1 mi
12:50 PM43 °FFog.5 mph87%30.42 "Hg1 mi
12:20 PM43 °FFog.3 mph87%30.42 "Hg1 mi
11:50 AM43 °FFog.2 mph93%30.42 "Hg1 mi
11:20 AM43 °FFog.5 mph93%30.42 "Hg1 mi
10:50 AM43 °FFog.5 mph87%30.42 "Hg1 mi
10:20 AM43 °FFog.No wind93%30.42 "Hg1 mi
9:50 AM43 °FFog.1 mph93%30.42 "Hg1 mi
9:20 AM43 °FFog.No wind87%30.42 "Hg1 mi
8:50 AM43 °FFog.No wind87%30.42 "Hg1 mi
8:20 AM43 °FFog.1 mph87%30.42 "Hg1 mi
7:50 AM43 °FFog.1 mph87%30.42 "Hg1 mi
7:20 AM43 °FFog.2 mph87%30.42 "Hg1 mi
6:50 AM43 °FFog.1 mph87%30.42 "Hg1 mi
6:20 AM43 °FFog.No wind87%30.42 "Hg1 mi
5:50 AM43 °FFog.No wind87%30.42 "Hg1 mi
5:20 AM43 °FFog.5 mph93%30.42 "Hg1 mi
4:50 AM43 °FFog.3 mph93%30.42 "Hg1 mi
4:20 AM43 °FFog.1 mph87%30.42 "Hg1 mi
3:50 AM43 °FFog.3 mph87%30.45 "Hg1 mi
3:20 AM43 °FFog.2 mph93%30.45 "Hg1 mi
Weather by CustomWeather, © 2014

See weather overviewHow to use our weather pages